388P/Gibbs (2019)

Japanese version
Home page
Updated on December 9, 2019

---------------------------------------------------------------------

* Profile

Designation 388P/2019 R2
Recovery Date September 5, 2019
Magnitude 18.7 mag
Recoverer H. Sato (Tokyo, Japan)

* Pictures

* Orbital Elements

Epoch 2019 July 16.0 TT = JDT 2458680.5
T 2019 July 23.63497 TT                                 Williams
q   2.0050179            (2000.0)            P               Q
n   0.08193613     Peri.   42.42359     +0.21727666     -0.94518445
a   5.2499169      Node    37.05892     +0.75131917     +0.00251899
e   0.6180858      Incl.   23.85878     +0.62314553     +0.32652719
P  12.0
From 93 observations 2007 Oct. 12-2019 Nov. 2, mean residual 0".6.

* Magnitudes Graph

        m1 = 12.0 + 5 log d + 15.0 log r

---------------------------------------------------------------------

The orbital elements are published on M.P.E.C. 2019-V116.
The magnitudes graphs are made with Comet for Windows.

---------------------------------------------------------------------

Copyright(C) Seiichi Yoshida (comet@aerith.net). All rights reserved.